Regional Weather Roundup
Issued by NWS

Home | Current Version | Previous Version | Graphics & Text | Print | Product List | Glossary On
Versions: 1 2 3 4 5 6 7 8 9 10 11 12 13 14 15 16 17 18 19 20 21 22 23 24 25 26 27 28 29 30 31 32 33 34 35 36 37 38 39 40 41 42 43 44 45 46 47 48 49 50
000
ASUS43 KDMX 050707
RWRIA

WEATHER ROUNDUP FOR IOWA
NATIONAL WEATHER SERVICE DES MOINES IA
200 AM CDT SAT SEP 05 2015

NOTE: "FAIR" INDICATES FEW OR NO CLOUDS BELOW 12,000 FEET WITH NO
SIGNIFICANT WEATHER AND/OR OBSTRUCTIONS TO VISIBILITY.

* - THESE STATIONS ARE NOT NWS STATIONS...THUS NOT UNDER NWS
QUALITY CONTROL.  THEY ALSO DO NOT REPORT WEATHER SUCH
AS PRECIPITATION OR FOG.

IAZ001>003-012>014-020>022-031>034-043>046-050800-
   NORTHWEST IOWA

CITY           SKY/WX    TMP DP  RH WIND       PRES   REMARKS
CARROLL *      CLEAR     72  72 100 SE5       29.96S
CHEROKEE *     MOCLDY    73  70  88 S6        29.92S
DENISON *      PTCLDY    75  68  78 S14       29.92S
LE MARS *      CLEAR     73  70  88 S6        29.89F
ORANGE CITY *  CLEAR     73  70  88 S8        29.90S
SHELDON *      CLOUDY    75  70  83 S12G17    29.90S
SIOUX CITY     PTCLDY    75  68  78 SE9       29.88S
SPENCER        PTCLDY    75  68  78 S9        29.93S
STORM LAKE *   CLEAR     73  70  88 S10       29.95S
$$

IAZ055>058-069>071-079>083-090>094-050800-
   SOUTHWEST IOWA

CITY           SKY/WX    TMP DP  RH WIND       PRES   REMARKS
ATLANTIC *     CLEAR     73  68  83 S7        29.96S
AUDUBON *      CLEAR     72  66  83 S5        29.97F
CLARINDA *     CLEAR     72  68  88 S5        29.98S
COUNCIL BLFS * CLEAR     73  70  88 S10       29.94S
CRESTON *      CLEAR     72  68  88 S6        30.00S
LAMONI         PTCLDY    75  68  78 S7        30.00R
RED OAK *      CLEAR     73  70  88 S6        29.95S
SHENANDOAH *   CLEAR     75  70  83 S8        29.95S
$$

IAZ047>049-059>061-072>074-084-050800-
   CENTRAL IOWA

CITY           SKY/WX    TMP DP  RH WIND       PRES   REMARKS
AMES           PTCLDY    73  71  93 SE5       29.98R FOG
ANKENY *       CLEAR     73  72  94 CALM      29.99R
CHARITON *     CLOUDY    75  70  83 S7        30.00S
DES MOINES     CLOUDY    77  69  76 S7        29.98R
GRINNELL*      MOCLDY    75  68  78 SE3       30.01S
KNOXVILLE *    CLOUDY    73  70  88 S6        29.98S
MARSHALLTOWN   MOCLDY    76  70  82 S8        29.98F
PELLA *        MOCLDY    73  72  94 SE6       30.00S
PERRY *          N/A     73  72  94 SE6       29.97S
$$

IAZ004>006-015-016-023>025-035-036-050800-
   NORTH CENTRAL IOWA

CITY           SKY/WX    TMP DP  RH WIND       PRES   REMARKS
ALGONA *       CLEAR     75  72  88 SE9       29.96S
CLARION *      CLEAR     73  70  88 SE8       29.97S
ESTHERVILLE    CLEAR     73  70  90 S9        29.94S
FORT DODGE *   MOCLDY    75  70  83 SE6       29.97F
MASON CITY     MOCLDY    75  72  90 SE8       30.00R
FOREST CITY *  CLEAR     72  72 100 SE6       29.98R
IOWA FALLS *     N/A     73  72  94 SE5       30.00S
$$

IAZ007>011-017>019-026>030-037>042-050>054-066-050800-
   NORTHEAST IOWA

CITY           SKY/WX    TMP DP  RH WIND       PRES   REMARKS
CEDAR RAPIDS   CLOUDY    74  73  97 SE5       30.01S
CHARLES CITY * MOCLDY    75  73  94 SE8       30.00F
CLINTON *      PTCLDY    72  68  88 E6        30.04S
DECORAH *      CLEAR     75  70  83 S7        30.01S
DUBUQUE        MOCLDY    76  71  85 S3        30.04S
MONTICELLO *   CLEAR     73  72  94 CALM      30.01S
OELWEIN *        N/A    N/A N/A N/A MISG      30.02S
WATERLOO       PTCLDY    74  71  91 SE6       29.98F
$$

IAZ064-065-067-068-078-050800-
   EAST CENTRAL IOWA

CITY           SKY/WX    TMP DP  RH WIND       PRES   REMARKS
DAVENPORT      PTCLDY    71  69  93 S5        30.02S
IOWA CITY      CLOUDY    76  71  85 CALM      30.02S
MT. PLEASANT * MOCLDY    75  70  83 S3        30.02S
MUSCATINE *    CLEAR     72  70  94 CALM      30.01F
QUAD CITIES    PTCLDY    76  68  76 CALM      30.01S
$$

IAZ062-063-075>077-085>089-095>099-050800-
   SOUTHEAST IOWA

CITY           SKY/WX    TMP DP  RH WIND       PRES   REMARKS
BURLINGTON     PTCLDY    73  70  90 CALM      30.02S
FAIRFIELD *    CLOUDY    73  68  83 CALM      30.02S
FORT MADISON * CLEAR     73  70  88 S6        30.03S
KEOKUK *       CLEAR     75  70  83 S5        30.02S
OSKALOOSA *      N/A     72  68  88 SE5       30.01S
CENTERVILLE *  CLEAR     72  68  88 SE6       30.03S
OTTUMWA        PTCLDY    74  69  85 S7        29.99S
WASHINGTON *     N/A    N/A N/A N/A MISG        N/A
$$

ABBREVIATIONS USED IN REMARKS
   TC - TEMPERATURES IN CELSIUS
  WCI - WIND CHILL INDEX
   HX - HEAT INDEX
  VSB - VISIBILITY
$$



USA.gov is the U.S. government's official web portal to all federal, state and local government web resources and services.